EW0139 Weather Reports


time (UTC)temp
F
wind
direction
speed
knots
gust
knots
rain 1hr
in
rain 24hr
in
rain mn
in
humidity
%
barometer
mb
20260508080755 37 262 0.0 0.0 0.00 0.02 0.00 80 1008.8
20260508075755 38 262 0.0 0.0 0.00 0.02 0.00 79 1008.7
20260508074817 40 262 0.0 0.9 0.00 0.02 0.00 75 1008.6
20260508073755 41 262 0.0 0.9 0.00 0.02 0.00 72 1008.5
20260508072742 42 262 0.0 0.9 0.00 0.02 0.00 73 1008.5
20260508071804 43 262 0.9 2.6 0.00 0.02 0.00 72 1008.4
20260508070744 43 262 1.7 2.6 0.00 0.02 0.00 76 1008.4
20260508065744 43 262 0.9 3.5 0.00 0.02 0.00 73 1008.3
20260508064747 42 262 1.7 3.5 0.00 0.02 0.00 75 1008.3
20260508063751 40 262 1.7 2.6 0.00 0.02 0.00 80 1008.2
20260508062754 40 262 0.9 1.7 0.00 0.02 0.00 80 1008.2
20260508061817 40 262 0.0 0.0 0.00 0.02 0.00 81 1008.1
20260508060738 41 262 0.0 1.7 0.00 0.02 0.00 80 1008.0
20260508055746 42 262 0.0 2.6 0.00 0.02 0.02 78 1007.9
20260508054747 42 262 0.9 4.3 0.00 0.02 0.02 80 1007.9
20260508053748 44 200 2.6 2.6 0.00 0.02 0.02 77 1007.8
20260508052746 45 195 0.0 0.0 0.00 0.02 0.02 76 1007.7
20260508051751 46 194 0.0 0.0 0.00 0.02 0.02 74 1007.6
20260508050754 47 195 0.0 0.9 0.00 0.02 0.02 74 1007.6
20260508045756 47 195 0.0 2.6 0.00 0.02 0.02 72 1007.6
20260508044756 48 195 0.0 3.5 0.00 0.02 0.02 71 1007.6
20260508043739 49 195 2.6 3.5 0.00 0.02 0.02 73 1007.5
20260508042744 49 194 2.6 4.3 0.00 0.02 0.02 73 1007.4
20260508041744 48 188 2.6 4.3 0.00 0.02 0.02 75 1007.3
20260508040744 47 64 0.9 1.7 0.00 0.02 0.02 75 1007.2
20260508035748 48 63 0.0 2.6 0.00 0.02 0.02 74 1007.2
20260508034746 49 63 0.0 1.7 0.00 0.02 0.02 74 1007.2
20260508033745 49 63 0.0 2.6 0.00 0.02 0.02 73 1007.2
20260508032807 50 63 0.9 1.7 0.00 0.02 0.02 73 1007.1
20260508031748 51 63 0.0 0.0 0.00 0.02 0.02 71 1007.2
20260508030751 52 63 0.0 0.0 0.00 0.02 0.02 71 1006.9
20260508025750 53 63 0.9 1.7 0.00 0.02 0.02 70 1006.8
20260508024751 52 63 1.7 4.3 0.00 0.02 0.02 71 1006.8
20260508023753 53 15 1.7 1.7 0.00 0.02 0.02 69 1006.9
20260508022757 54 16 0.0 0.0 0.01 0.02 0.02 71 1006.8
20260508021800 55 16 0.0 3.5 0.02 0.02 0.02 67 1006.5
20260508020742 55 5 2.6 4.3 0.02 0.02 0.02 66 1006.6
20260508015745 56 248 0.0 4.3 0.02 0.02 0.02 63 1006.9
20260508014751 56 313 0.9 3.5 0.02 0.02 0.02 66 1007.1
20260508013815 56 313 3.5 8.7 0.02 0.02 0.02 68 1007.3
20260508012817 57 308 6.1 23.5 0.01 0.01 0.01 62 1007.4
20260508011756 64 279 14.8 22.6 0.00 0.00 0.00 42 1007.4
20260508010757 65 209 8.7 11.3 0.00 0.00 0.00 39 1006.4
20260508005741 66 210 5.2 11.3 0.00 0.00 0.00 37 1006.1
20260508004741 67 246 7.8 12.2 0.00 0.00 0.00 37 1006.2
20260508003743 67 220 11.3 14.8 0.00 0.00 0.00 36 1006.2
20260508002742 68 235 5.2 9.6 0.00 0.00 0.00 32 1006.3
20260508001741 68 227 6.1 11.3 0.00 0.00 0.00 32 1006.2
20260508000745 68 257 4.3 13.9 0.00 0.00 0.00 32 1006.4
20260507235745 68 209 8.7 8.7 0.00 0.00 0.00 29 1006.5
20260507234744 68 263 7.0 16.5 0.00 0.00 0.00 30 1006.6
20260507233743 67 246 5.2 9.6 0.00 0.00 0.00 29 1006.7
20260507232808 67 277 12.2 13.0 0.00 0.00 0.00 30 1006.9
20260507231748 67 293 7.0 11.3 0.00 0.00 0.00 30 1006.8
20260507230751 67 232 7.8 16.5 0.00 0.00 0.00 28 1006.7
20260507225751 67 271 8.7 13.9 0.00 0.00 0.00 28 1007.1
20260507224750 67 254 6.1 16.5 0.00 0.00 0.00 30 1007.1
20260507223749 67 267 12.2 16.5 0.00 0.00 0.00 28 1007.2
20260507222751 67 254 12.2 14.8 0.00 0.00 0.00 28 1007.3
20260507221753 67 277 8.7 17.4 0.00 0.00 0.00 28 1007.5
20260507220751 67 248 8.7 17.4 0.00 0.00 0.00 28 1007.6
20260507215756 66 273 7.8 24.3 0.00 0.00 0.00 29 1007.8
20260507214817 66 263 19.1 20.0 0.00 0.00 0.00 29 1007.8
20260507213741 66 271 18.2 21.7 0.00 0.00 0.00 29 1007.8
20260507212801 66 298 19.1 19.1 0.00 0.00 0.00 28 1008.0
20260507211742 65 266 12.2 15.6 0.00 0.00 0.00 28 1008.3
20260507210741 65 236 8.7 18.2 0.00 0.00 0.00 29 1008.5
20260507205740 65 269 14.8 16.5 0.00 0.00 0.00 27 1008.4
20260507204745 64 223 13.0 16.5 0.00 0.00 0.00 28 1008.6
20260507203746 62 268 8.7 13.0 0.00 0.00 0.00 29 1008.7
20260507202750 64 296 12.2 19.1 0.00 0.00 0.00 29 1008.8
20260507201750 63 257 7.8 15.6 0.00 0.00 0.00 29 1008.9
20260507200750 62 279 4.3 13.0 0.00 0.00 0.00 27 1009.2
20260507195755 63 315 5.2 15.6 0.00 0.00 0.00 25 1009.2
20260507194756 62 262 7.8 9.6 0.00 0.00 0.00 26 1009.2
20260507193756 62 254 5.2 13.9 0.00 0.00 0.00 28 1009.3
20260507192757 62 292 4.3 11.3 0.00 0.00 0.00 27 1009.4
20260507191744 61 293 12.2 13.0 0.00 0.00 0.00 27 1009.5
20260507190742 60 296 4.3 11.3 0.00 0.00 0.00 28 1009.6
20260507185743 60 315 9.6 11.3 0.00 0.00 0.00 27 1009.7
20260507184746 60 297 3.5 11.3 0.00 0.00 0.00 29 1009.7
20260507183745 59 221 5.2 8.7 0.00 0.00 0.00 29 1009.7
20260507182749 59 263 0.9 5.2 0.00 0.00 0.00 29 1009.6
20260507181751 59 296 5.2 11.3 0.00 0.00 0.00 28 1009.5
20260507180750 58 313 2.6 6.1 0.00 0.00 0.00 30 1009.7
20260507175751 57 300 2.6 4.3 0.00 0.00 0.00 29 1009.8
20260507174756 57 293 7.0 8.7 0.00 0.00 0.00 30 1009.9
20260507173741 56 277 0.9 4.3 0.00 0.00 0.00 29 1010.0
20260507172742 56 260 5.2 8.7 0.00 0.00 0.00 30 1010.1
20260507171744 56 238 0.0 7.0 0.00 0.00 0.00 29 1010.2
20260507170810 56 181 1.7 4.3 0.00 0.00 0.00 31 1009.4
20260507165751 55 263 7.8 7.8 0.00 0.00 0.00 31 1009.5
20260507164753 56 267 3.5 6.1 0.00 0.00 0.00 30 1009.6
20260507163753 55 50 0.9 3.5 0.00 0.00 0.00 32 1009.6
20260507162753 54 86 0.0 4.3 0.00 0.00 0.00 31 1009.7
20260507161818 54 86 2.6 2.6 0.00 0.00 0.00 32 1009.5
20260507160756 53 86 0.9 5.2 0.00 0.00 0.00 32 1009.6
20260507155740 51 156 0.0 5.2 0.00 0.00 0.00 32 1009.7
20260507154739 52 161 4.3 7.8 0.00 0.00 0.00 31 1009.6
20260507153747 51 123 5.2 8.7 0.00 0.00 0.00 32 1009.6
20260507152748 51 138 5.2 7.0 0.00 0.00 0.00 33 1009.6
20260507151748 50 132 1.7 6.1 0.00 0.00 0.00 34 1009.7
20260507150750 49 124 3.5 6.1 0.00 0.00 0.00 33 1009.8
20260507145754 49 114 3.5 6.1 0.00 0.00 0.00 35 1009.7
20260507144757 48 122 2.6 7.0 0.00 0.00 0.00 36 1009.7
20260507143757 46 99 3.5 7.8 0.00 0.00 0.00 36 1009.7
20260507142757 46 111 5.2 8.7 0.00 0.00 0.00 35 1009.7
20260507141740 45 114 5.2 7.0 0.00 0.00 0.00 36 1009.8
20260507140803 44 94 5.2 8.7 0.00 0.00 0.00 37 1009.7
20260507135742 43 82 1.7 6.1 0.00 0.00 0.00 38 1009.7
20260507134743 43 82 4.3 7.8 0.00 0.00 0.00 38 1009.5
20260507133744 42 67 1.7 4.3 0.00 0.00 0.00 43 1009.4
20260507132748 40 33 3.5 5.2 0.00 0.00 0.00 43 1009.4
20260507131750 39 30 4.3 5.2 0.00 0.00 0.00 42 1009.6
20260507130751 38 45 4.3 5.2 0.00 0.00 0.00 44 1009.5
20260507125753 37 37 3.5 6.1 0.00 0.00 0.00 44 1009.6
20260507124740 36 38 3.5 9.6 0.00 0.00 0.00 44 1009.4
20260507123741 36 47 7.8 9.6 0.00 0.00 0.00 45 1009.3
20260507122740 35 42 5.2 9.6 0.00 0.00 0.00 45 1009.2
20260507121800 35 57 5.2 9.6 0.00 0.00 0.00 45 1009.2
20260507120745 35 22 7.0 9.6 0.00 0.00 0.00 45 1009.1
20260507115745 34 13 3.5 8.7 0.00 0.00 0.00 46 1009.0
20260507114746 34 28 5.2 8.7 0.00 0.00 0.00 46 1009.0
20260507113744 34 37 4.3 8.7 0.00 0.00 0.00 46 1009.0
20260507112805 35 41 6.1 9.6 0.00 0.00 0.00 45 1009.0
20260507111747 36 36 7.8 10.4 0.00 0.00 0.00 43 1009.1
20260507110750 35 47 7.0 10.4 0.00 0.00 0.00 44 1009.0
20260507105810 35 42 6.1 7.8 0.00 0.00 0.00 45 1009.2
20260507104811 36 39 7.8 8.7 0.00 0.00 0.00 45 1009.2
20260507103751 36 40 4.3 8.7 0.00 0.00 0.00 44 1009.3
20260507102812 36 32 2.6 7.8 0.00 0.00 0.00 45 1009.4
20260507101754 36 30 4.3 8.7 0.00 0.00 0.00 45 1009.4
20260507100754 37 35 3.5 6.1 0.00 0.00 0.00 44 1009.5
20260507095753 37 33 3.5 6.1 0.00 0.00 0.00 43 1009.6
20260507094755 37 30 3.5 7.0 0.00 0.00 0.00 43 1009.8
20260507093803 37 28 3.5 6.1 0.00 0.00 0.00 44 1009.8
20260507092802 37 23 1.7 5.2 0.00 0.00 0.00 45 1009.5
20260507091742 37 21 0.0 4.3 0.00 0.00 0.00 46 1009.5
20260507090742 37 33 5.2 5.2 0.00 0.00 0.00 44 1009.6
20260507085742 38 34 5.2 7.8 0.00 0.00 0.00 44 1009.7
20260507084748 38 40 4.3 7.0 0.00 0.00 0.00 44 1008.7
20260507083749 38 37 5.2 8.7 0.00 0.00 0.00 44 1008.8
20260507082750 38 29 4.3 6.1 0.00 0.00 0.00 44 1008.8
20260507081749 38 36 3.5 5.2 0.00 0.00 0.00 46 1008.9